Regional Weather Roundup
Issued by NWS

Home | Current Version | Previous Version | Text Only | Print | Product List | Glossary Off
Versions: 1 2 3 4 5 6 7 8 9 10 11 12 13 14 15 16 17 18 19 20 21 22 23 24 25 26 27 28 29 30 31 32 33 34 35 36 37 38 39 40 41 42 43 44 45 46 47 48 49 50

000
ASUS43 KMPX 010110
RWRMN
WEATHER ROUNDUP FOR MINNESOTA
NATIONAL WEATHER SERVICE TWIN CITIES/CHANHASSEN MN
800 PM CDT MON AUG 31 2015


NOTE: "FAIR" INDICATES FEW OR NO CLOUDS BELOW 12,000 FEET WITH NO
SIGNIFICANT WEATHER AND/OR OBSTRUCTIONS TO VISIBILITY. N/A MEANS
CURRENT SKY AND/OR WEATHER CONDITIONS ARE NOT AVAILABLE.

MNZ060>063-068>070-010200-
   Twin Cities Metro

CITY           SKY/WX    TMP DP  RH WIND       PRES   REMARKS
TWIN CITIES    PTCLDY    82  70  66 VRB7      29.88F
ST PAUL        CLEAR     78  70  76 S5        29.88S
CRYSTAL        CLEAR     81  68  64 S7        29.87S
LAKEVILLE      PTCLDY    73  72  94 CALM      29.90S
EDEN PRAIRIE   CLEAR     79  70  74 S8        29.87F
SOUTH ST PAUL  CLEAR     80  70  71 S6        29.89S
LAKE ELMO      FAIR      77  72  83 S6        29.90S
$$
MNZ001>005-007-008-013>017-022>024-027-028-010200-
   Northwest Minnesota

CITY           SKY/WX    TMP DP  RH WIND       PRES   REMARKS
BEMIDJI        CLOUDY    73  67  81 CALM      29.83F
HALLOCK        MOCLDY    72  52  49 SW7       29.78R
ROSEAU         CLOUDY    72  64  78 S5        29.79S
WARROAD        CLOUDY    70  66  88 S3        29.80S
THIEF RVR FALL CLOUDY   N/A N/A N/A W8        29.82R
CROOKSTON      CLOUDY    73  57  56 W8        29.82S
FOSSTON        CLOUDY    68  63  83 CALM      29.84S
DETROIT LAKES  DRIZZLE   72  66  83 CALM      29.86F
MOORHEAD       CLOUDY    75  66  73 CALM      29.83S
PARK RAPIDS    MOCLDY    74  66  76 NW6       29.86R
MAHNOMEN       FAIR      71  65  82 CALM      29.84R
$$
MNZ006-009>011-018-025>026-010200-
   North Central Minnesota

CITY           SKY/WX    TMP DP  RH WIND       PRES   REMARKS
BAUDETTE       CLOUDY    69  65  86 SW5       29.80S
FLAG ISLAND    MOCLDY    72  64  78 SW7       29.77S
INTL FALLS     MOCLDY    70  65  84 SW5       29.81R
WASKISH        CLOUDY    70  66  88 CALM      29.82S
BIG FORK       MOCLDY    73  64  73 CALM      29.84S
LONGVILLE      MOCLDY    73  70  88 CALM      29.84S
GRAND RAPIDS     N/A     75  66  73 S5        29.85R
CRANE LAKE     CLOUDY    75  64  69 W1        29.83R
ORR            MOCLDY    75  63  64 CALM      29.80S
COOK           MOCLDY    75  66  73 CALM      29.84R
WALKER         FAIR      73  66  80 CALM      29.84S
$$
MNZ012-019>021-037-010200-
   Northeast Minnesota

CITY           SKY/WX    TMP DP  RH WIND       PRES   REMARKS
DULUTH         PTCLDY    75  69  81 SW7       29.88R
ELY            MOCLDY    75  64  69 SW6       29.84R
HIBBING        MOCLDY    76  67  73 VRB5      29.84S
EVELETH        PTCLDY    75  64  69 SW6       29.86S
DULUTH HARBOR  CLEAR     77  72  83 S8        29.84S
TWO HARBORS    PTCLDY    75  70  83 SW3       29.84S
SILVER BAY     PTCLDY    73  66  78 SW3       29.84R
GRAND MARAIS     N/A     57  55  93 W3        29.84R
G MARAIS ARPRT PTCLDY    66  61  82 S6        29.89S
$$
MNZ029>031-032-039>041-046>048-054>057-064-010200-
   West Central Minnesota

CITY           SKY/WX    TMP DP  RH WIND       PRES   REMARKS
FERGUS FALLS   MOCLDY    73  66  78 CALM      29.81F
WHEATON        CLOUDY    72  66  83 CALM      29.84S
MORRIS         PTCLDY    73  68  83 NW3       29.84S
ALEXANDRIA     PTCLDY    75  67  76 NW6       29.87R
ELBOW LAKE     FAIR      74  68  82 CALM      29.84F
WADENA         MOCLDY    73  64  73 CALM      29.85S
GLENWOOD       CLEAR     75  70  83 S5        29.86S
APPLETON       PTCLDY    77  66  69 N6        29.84R
BENSON         CLEAR     75  70  83 CALM      29.84S
ORTONVILLE     MOCLDY    75  66  73 NE2       29.84S
MADISON        PTCLDY    75  70  83 CALM      29.84R
WILLMAR        FAIR      77  70  78 CALM      29.87S
$$
MNZ033>034-036-042>043-049>051-058-059-010200-
   Central Minnesota

CITY           SKY/WX    TMP DP  RH WIND       PRES   REMARKS
ST CLOUD       PTCLDY    75  68  78 S7        29.87R
SAUK CENTRE    MOCLDY    76  69  80 S6        29.86R
PAYNESVILLE    PTCLDY    77  67  72 SE6       29.87S
AITKIN         MOCLDY    79  68  69 S7        29.84S
PINE RIVER     MOCLDY    75  70  83 CALM      29.87S
BRAINERD       MOCLDY    76  68  76 S6        29.85S
STAPLES        MOCLDY    75  68  78 W7        29.85R
LONG PRAIRIE   FAIR      73  68  83 SE3       29.86S
LITTLE FALLS   MOCLDY    77  64  65 S5        29.86S
LITCHFIELD     PTCLDY    77  72  83 CALM      29.88F
BUFFALO        CLEAR     77  68  72 S3        29.89R
MAPLE LAKE     CLEAR     76  70  82 S3        29.89R
$$
MNZ037-044-045-052-053-010200-
   East Central Minnesota

CITY           SKY/WX    TMP DP  RH WIND       PRES   REMARKS
PRINCETON      CLEAR     79  70  73 S6        29.87S
MORA           MOCLDY    75  66  73 S5        29.89R
CAMBRIDGE      CLEAR     79  66  65 S5        29.86S
RUSH CITY      CLEAR     75  68  78 S3        29.88S
MOOSE LAKE     CLEAR     72  68  88 SW5       29.85R
HINCKLEY       FAIR      75  70  83 SW5       29.88R
CLOQUET        CLEAR     75  66  73 SW3       29.87S
MCGREGOR       MOCLDY    77  70  78 S6        29.86F
$$
MNZ071>073-080-081-089-090-097-098-010200-
   Southwest Minnesota

CITY           SKY/WX    TMP DP  RH WIND       PRES   REMARKS
MONTEVIDEO     PTCLDY    79  70  73 SW6       29.86S
GRANITE FALLS  MOCLDY    77  72  83 CALM      29.86F
CANBY          PTCLDY    79  69  72 S5        29.86S
MARSHALL       CLEAR     79  66  65 S8        29.87F
REDWOOD FALLS  CLEAR     77  68  73 S9        29.87F
OLIVIA         PTCLDY    73  64  73 S6        29.86F
PIPESTONE      CLEAR     73  70  88 S5        29.90R
WINDOM         CLEAR     75  66  73 CALM      29.91S
WORTHINGTON    CLEAR     73  66  78 S9        29.91S
JACKSON        CLEAR     73  68  83 S7        29.92S
TRACY          PTCLDY    77  70  78 S7        29.88F
SLAYTON        CLEAR     73  71  92 SE7       29.90F
$$
MNZ065>067-074>077-082>085-091>093-010200-
   South Central Minnesota

CITY           SKY/WX    TMP DP  RH WIND       PRES   REMARKS
MANKATO        CLEAR     77  70  78 S5        29.90S
NEW ULM        CLEAR     75  68  78 S5        29.89S
ST JAMES       CLEAR     75  70  83 S6        29.91R
FAIRMONT       CLEAR     73  64  73 S7        29.91S
GLENCOE        CLEAR     77  72  84 S3        29.89R
FARIBAULT      PTCLDY    77  72  83 S3        29.92R
OWATONNA       CLEAR     77  70  78 S6        29.93R
WASECA         CLEAR     73  70  88 S5        29.93S
ALBERT LEA     CLEAR     79  70  73 S5        29.93S
$$
MNZ078>079-086>088-094>096-010200-
   Southeast Minnesota

CITY           SKY/WX    TMP DP  RH WIND       PRES   REMARKS
ROCHESTER      CLEAR     75  71  87 S7        29.95S FOG
RED WING       CLEAR     81  72  74 S5        29.90R
STANTON        MOCLDY    78  71  80 CALM      29.90R
DODGE CENTER   CLEAR     73  70  88 S6        29.94S
WINONA         CLEAR     77  70  78 SE3       29.93S
AUSTIN         CLEAR     79  72  78 S3        29.94S
PRESTON        CLEAR     75  70  85 S3        29.96S
$$
ABBREVIATIONS USED IN REMARKS
   TC - TEMPERATURES IN CELSIUS
  WCI - WIND CHILL INDEX
   HX - HEAT INDEX
  VSB - VISIBILITY
$$



USA.gov is the U.S. government's official web portal to all federal, state and local government web resources and services.